Time,TemperatureF,DewpointF,PressureIn,WindDirection,WindDirectionDegrees,WindSpeedMPH,WindSpeedGustMPH,Humidity,HourlyPrecipIn,Conditions,Clouds,dailyrainin,SoftwareType,DateUTC
2013-03-15 00:00:00,43.6,25.7,30.27,North,6,1.0,1.0,49,0.00,,OVC080,0.00,VWS V14.01,2013-03-15 04:00:00,
2013-03-15 00:05:00,43.4,25.5,30.26,NE,39,0.0,1.0,49,0.00,,OVC080,0.00,VWS V14.01,2013-03-15 04:05:00,
2013-03-15 00:10:00,43.2,25.4,30.26,NW,312,0.0,1.0,49,0.00,,OVC080,0.00,VWS V14.01,2013-03-15 04:10:00,
2013-03-15 00:15:00,43.0,25.6,30.26,NW,311,0.0,0.0,50,0.00,,OVC080,0.00,VWS V14.01,2013-03-15 04:15:00,
2013-03-15 00:20:00,42.8,25.9,30.26,NW,311,0.0,0.0,51,0.00,,OVC080,0.00,VWS V14.01,2013-03-15 04:20:00,
2013-03-15 00:25:00,42.5,26.1,30.26,NW,312,0.0,0.0,52,0.00,,OVC080,0.00,VWS V14.01,2013-03-15 04:25:00,
2013-03-15 00:30:00,42.4,26.5,30.26,NW,311,0.0,0.0,53,0.00,,OVC080,0.00,VWS V14.01,2013-03-15 04:30:00,
2013-03-15 00:35:00,42.2,25.9,30.25,NW,312,0.0,0.0,52,0.00,,OVC080,0.00,VWS V14.01,2013-03-15 04:35:00,
2013-03-15 00:40:00,42.2,26.3,30.25,NW,311,0.0,0.0,53,0.00,,OVC080,0.00,VWS V14.01,2013-03-15 04:40:00,
2013-03-15 00:45:00,42.0,26.6,30.25,NW,312,0.0,0.0,54,0.00,,OVC080,0.00,VWS V14.01,2013-03-15 04:45:00,
2013-03-15 00:50:00,42.0,27.5,30.25,NW,316,0.0,3.0,56,0.00,,OVC080,0.00,VWS V14.01,2013-03-15 04:50:00,
2013-03-15 00:55:00,42.0,27.5,30.25,WNW,288,0.0,1.0,56,0.00,,OVC080,0.00,VWS V14.01,2013-03-15 04:55:00,
2013-03-15 01:00:00,41.8,27.7,30.25,WNW,288,0.0,1.0,57,0.00,,OVC080,0.00,VWS V14.01,2013-03-15 05:00:00,
2013-03-15 01:05:00,41.6,27.5,30.25,NW,323,0.0,1.0,57,0.00,,OVC080,0.00,VWS V14.01,2013-03-15 05:05:00,
2013-03-15 01:10:00,41.4,28.2,30.25,WNW,288,0.0,1.0,59,0.00,,OVC080,0.00,VWS V14.01,2013-03-15 05:10:00,
2013-03-15 01:15:00,41.2,28.4,30.25,West,271,0.0,1.0,60,0.00,,OVC080,0.00,VWS V14.01,2013-03-15 05:15:00,
2013-03-15 01:20:00,41.1,28.7,30.25,WSW,258,1.0,1.0,61,0.00,,OVC080,0.00,VWS V14.01,2013-03-15 05:20:00,
2013-03-15 01:25:00,41.1,28.7,30.25,West,264,1.0,2.0,61,0.00,,OVC080,0.00,VWS V14.01,2013-03-15 05:25:00,
2013-03-15 01:30:00,41.1,29.1,30.25,West,267,0.0,2.0,62,0.00,,OVC080,0.00,VWS V14.01,2013-03-15 05:30:00,
2013-03-15 01:35:00,40.9,28.9,30.25,West,264,1.0,2.0,62,0.00,,OVC080,0.00,VWS V14.01,2013-03-15 05:35:00,
2013-03-15 01:40:00,40.9,29.3,30.25,WSW,246,0.0,1.0,63,0.00,,OVC080,0.00,VWS V14.01,2013-03-15 05:40:00,
2013-03-15 01:45:00,40.8,29.2,30.26,WSW,243,0.0,2.0,63,0.00,,OVC080,0.00,VWS V14.01,2013-03-15 05:45:00,
2013-03-15 01:50:00,40.7,29.1,30.26,West,263,1.0,1.0,63,0.00,,OVC080,0.00,VWS V14.01,2013-03-15 05:50:00,
2013-03-15 01:55:00,40.6,29.4,30.26,WSW,256,0.0,1.0,64,0.00,,OVC080,0.00,VWS V14.01,2013-03-15 05:55:00,
2013-03-15 02:00:00,40.5,29.3,30.25,WSW,253,0.0,1.0,64,0.00,,OVC080,0.00,VWS V14.01,2013-03-15 06:00:00,
2013-03-15 02:05:00,40.2,29.4,30.26,WSW,238,1.0,1.0,65,0.00,,OVC080,0.00,VWS V14.01,2013-03-15 06:05:00,
2013-03-15 02:10:00,40.1,29.7,30.25,WSW,252,0.0,0.0,66,0.00,,OVC080,0.00,VWS V14.01,2013-03-15 06:10:00,
2013-03-15 02:15:00,39.8,29.8,30.25,WSW,245,1.0,1.0,67,0.00,,OVC080,0.00,VWS V14.01,2013-03-15 06:15:00,
2013-03-15 02:20:00,39.6,29.6,30.25,WSW,257,0.0,1.0,67,0.00,,OVC080,0.00,VWS V14.01,2013-03-15 06:20:00,
2013-03-15 02:25:00,39.3,29.6,30.25,WSW,257,0.0,0.0,68,0.00,,OVC080,0.00,VWS V14.01,2013-03-15 06:25:00,
2013-03-15 02:30:00,39.1,29.8,30.25,WSW,257,0.0,0.0,69,0.00,,OVC080,0.00,VWS V14.01,2013-03-15 06:30:00,
2013-03-15 02:35:00,38.9,29.6,30.25,WSW,257,0.0,0.0,69,0.00,,OVC080,0.00,VWS V14.01,2013-03-15 06:35:00,
2013-03-15 02:40:00,38.7,29.8,30.25,WSW,257,0.0,0.0,70,0.00,,OVC080,0.00,VWS V14.01,2013-03-15 06:40:00,
2013-03-15 02:45:00,38.5,29.6,30.25,WSW,257,0.0,0.0,70,0.00,,OVC080,0.00,VWS V14.01,2013-03-15 06:45:00,
2013-03-15 02:50:00,38.1,29.5,30.25,WSW,257,0.0,0.0,71,0.00,,OVC080,0.00,VWS V14.01,2013-03-15 06:50:00,
2013-03-15 02:55:00,37.7,30.2,30.25,WSW,257,0.0,0.0,74,0.00,,OVC080,0.00,VWS V14.01,2013-03-15 06:55:00,
2013-03-15 03:00:00,37.2,31.0,30.25,WSW,258,0.0,0.0,78,0.00,,OVC080,0.00,VWS V14.01,2013-03-15 07:00:00,
2013-03-15 03:05:00,36.9,31.3,30.25,WSW,257,0.0,0.0,80,0.00,,OVC080,0.00,VWS V14.01,2013-03-15 07:05:00,
2013-03-15 03:10:00,36.7,31.1,30.25,WSW,257,0.0,0.0,80,0.00,,OVC080,0.00,VWS V14.01,2013-03-15 07:10:00,
2013-03-15 03:15:00,36.5,31.2,30.25,WSW,257,0.0,0.0,81,0.00,,OVC080,0.00,VWS V14.01,2013-03-15 07:15:00,
2013-03-15 03:20:00,36.3,31.0,30.25,WSW,256,0.0,0.0,81,0.00,,OVC080,0.00,VWS V14.01,2013-03-15 07:20:00,
2013-03-15 03:25:00,36.0,30.8,30.24,WSW,257,0.0,0.0,81,0.00,,OVC080,0.00,VWS V14.01,2013-03-15 07:25:00,
2013-03-15 03:30:00,35.6,30.4,30.24,WSW,257,0.0,0.0,81,0.00,,OVC080,0.00,VWS V14.01,2013-03-15 07:30:00,
2013-03-15 03:35:00,35.6,31.5,30.24,WSW,257,0.0,0.0,85,0.00,,OVC080,0.00,VWS V14.01,2013-03-15 07:35:00,
2013-03-15 03:40:00,35.5,31.7,30.24,WSW,257,0.0,0.0,86,0.00,,OVC080,0.00,VWS V14.01,2013-03-15 07:40:00,
2013-03-15 03:45:00,35.5,31.5,30.24,WSW,257,0.0,0.0,85,0.00,,OVC080,0.00,VWS V14.01,2013-03-15 07:45:00,
2013-03-15 03:50:00,35.2,31.4,30.24,WSW,257,0.0,0.0,86,0.00,,OVC080,0.00,VWS V14.01,2013-03-15 07:50:00,
2013-03-15 03:55:00,35.1,31.3,30.24,WSW,257,0.0,0.0,86,0.00,,OVC080,0.00,VWS V14.01,2013-03-15 07:55:00,
2013-03-15 04:00:00,35.0,31.2,30.24,WSW,257,0.0,0.0,86,0.00,,OVC080,0.00,VWS V14.01,2013-03-15 08:00:00,
2013-03-15 04:05:00,34.7,30.7,30.24,WSW,257,0.0,0.0,85,0.00,,OVC080,0.00,VWS V14.01,2013-03-15 08:05:00,
2013-03-15 04:10:00,34.4,30.6,30.23,WSW,257,0.0,0.0,86,0.00,,OVC080,0.00,VWS V14.01,2013-03-15 08:10:00,
2013-03-15 04:15:00,34.1,30.4,30.23,WSW,257,0.0,0.0,86,0.00,,OVC080,0.00,VWS V14.01,2013-03-15 08:15:00,
2013-03-15 04:20:00,33.9,30.7,30.23,WSW,257,0.0,0.0,88,0.00,,OVC080,0.00,VWS V14.01,2013-03-15 08:20:00,
2013-03-15 04:25:00,33.9,30.7,30.23,WSW,257,0.0,0.0,88,0.00,,OVC080,0.00,VWS V14.01,2013-03-15 08:25:00,
2013-03-15 04:30:00,33.7,30.8,30.23,WSW,257,0.0,0.0,89,0.00,,OVC080,0.00,VWS V14.01,2013-03-15 08:30:00,
2013-03-15 04:35:00,33.7,31.1,30.23,WSW,257,0.0,0.0,90,0.00,,OVC080,0.00,VWS V14.01,2013-03-15 08:35:00,
2013-03-15 04:40:00,33.7,31.1,30.23,WSW,257,0.0,0.0,90,0.00,,OVC080,0.00,VWS V14.01,2013-03-15 08:40:00,
2013-03-15 04:45:00,33.4,30.5,30.23,WSW,257,0.0,0.0,89,0.00,,OVC080,0.00,VWS V14.01,2013-03-15 08:45:00,
2013-03-15 04:50:00,33.4,30.8,30.24,WSW,257,0.0,0.0,90,0.00,,OVC080,0.00,VWS V14.01,2013-03-15 08:50:00,
2013-03-15 04:55:00,33.3,30.7,30.24,WSW,257,0.0,0.0,90,0.00,,OVC080,0.00,VWS V14.01,2013-03-15 08:55:00,
2013-03-15 05:00:00,33.3,30.7,30.23,WSW,257,0.0,0.0,90,0.00,,OVC080,0.00,VWS V14.01,2013-03-15 09:00:00,
2013-03-15 05:05:00,33.2,30.6,30.23,WSW,257,0.0,0.0,90,0.00,,OVC080,0.00,VWS V14.01,2013-03-15 09:05:00,
2013-03-15 05:10:00,33.2,30.9,30.23,WSW,257,0.0,0.0,91,0.00,,OVC080,0.00,VWS V14.01,2013-03-15 09:10:00,
2013-03-15 05:15:00,33.1,30.8,30.23,WSW,257,0.0,0.0,91,0.00,,OVC080,0.00,VWS V14.01,2013-03-15 09:15:00,
2013-03-15 05:20:00,32.8,30.5,30.23,WSW,257,0.0,0.0,91,0.00,,OVC080,0.00,VWS V14.01,2013-03-15 09:20:00,
2013-03-15 05:25:00,32.7,30.6,30.23,WSW,257,0.0,0.0,92,0.00,,OVC080,0.00,VWS V14.01,2013-03-15 09:25:00,
2013-03-15 05:30:00,32.3,30.0,30.23,WSW,257,0.0,0.0,91,0.00,,OVC080,0.00,VWS V14.01,2013-03-15 09:30:00,
2013-03-15 05:35:00,32.5,30.7,30.23,WSW,257,0.0,0.0,93,0.00,,OVC080,0.00,VWS V14.01,2013-03-15 09:35:00,
2013-03-15 05:40:00,32.6,30.8,30.23,WSW,257,0.0,0.0,93,0.00,,OVC080,0.00,VWS V14.01,2013-03-15 09:40:00,
2013-03-15 05:45:00,32.6,30.8,30.24,WSW,257,0.0,0.0,93,0.00,,OVC080,0.00,VWS V14.01,2013-03-15 09:45:00,
2013-03-15 05:50:00,32.5,30.7,30.23,WSW,257,0.0,0.0,93,0.00,,OVC080,0.00,VWS V14.01,2013-03-15 09:50:00,
2013-03-15 05:55:00,32.5,30.7,30.23,WSW,257,0.0,0.0,93,0.00,,OVC080,0.00,VWS V14.01,2013-03-15 09:55:00,
2013-03-15 06:00:00,32.3,30.2,30.23,WSW,257,0.0,0.0,92,0.00,,OVC080,0.00,VWS V14.01,2013-03-15 10:00:00,
2013-03-15 06:05:00,32.2,30.4,30.24,WSW,257,0.0,0.0,93,0.00,,OVC080,0.00,VWS V14.01,2013-03-15 10:05:00,
2013-03-15 06:10:00,32.1,30.3,30.23,WSW,257,0.0,0.0,93,0.00,,OVC080,0.00,VWS V14.01,2013-03-15 10:10:00,
2013-03-15 06:15:00,32.2,30.7,30.23,WSW,257,0.0,0.0,94,0.00,,OVC080,0.00,VWS V14.01,2013-03-15 10:15:00,
2013-03-15 06:20:00,32.3,30.8,30.23,WSW,257,0.0,0.0,94,0.00,,OVC080,0.00,VWS V14.01,2013-03-15 10:20:00,
2013-03-15 06:25:00,32.1,30.3,30.23,WSW,257,0.0,0.0,93,0.00,,OVC080,0.00,VWS V14.01,2013-03-15 10:25:00,
2013-03-15 06:30:00,32.3,30.8,30.24,WSW,257,0.0,0.0,94,0.00,,OVC080,0.00,VWS V14.01,2013-03-15 10:30:00,
2013-03-15 06:35:00,32.3,30.8,30.23,WSW,257,0.0,0.0,94,0.00,,OVC080,0.00,VWS V14.01,2013-03-15 10:35:00,
2013-03-15 06:40:00,32.3,30.5,30.24,WSW,257,0.0,0.0,93,0.00,,OVC080,0.00,VWS V14.01,2013-03-15 10:40:00,
2013-03-15 06:45:00,32.3,30.5,30.24,WSW,257,0.0,0.0,93,0.00,,OVC080,0.00,VWS V14.01,2013-03-15 10:45:00,
2013-03-15 06:50:00,32.2,30.1,30.24,WSW,257,0.0,0.0,92,0.00,,OVC080,0.00,VWS V14.01,2013-03-15 10:50:00,
2013-03-15 06:55:00,32.1,30.0,30.24,WSW,257,0.0,0.0,92,0.00,,OVC080,0.00,VWS V14.01,2013-03-15 10:55:00,
2013-03-15 07:00:00,32.0,29.9,30.24,WSW,257,0.0,0.0,92,0.00,,OVC080,0.00,VWS V14.01,2013-03-15 11:00:00,
2013-03-15 07:05:00,32.1,30.3,30.24,WSW,257,0.0,0.0,93,0.00,,OVC080,0.00,VWS V14.01,2013-03-15 11:05:00,
2013-03-15 07:10:00,31.8,29.8,30.24,WSW,257,0.0,0.0,92,0.00,,OVC080,0.00,VWS V14.01,2013-03-15 11:10:00,
2013-03-15 07:15:00,31.9,30.1,30.24,WSW,257,0.0,0.0,93,0.00,,OVC080,0.00,VWS V14.01,2013-03-15 11:15:00,
2013-03-15 07:20:00,31.9,30.4,30.24,WSW,257,0.0,0.0,94,0.00,,OVC080,0.00,VWS V14.01,2013-03-15 11:20:00,
2013-03-15 07:25:00,32.0,30.5,30.24,WSW,257,0.0,0.0,94,0.00,,OVC080,0.00,VWS V14.01,2013-03-15 11:25:00,
2013-03-15 07:30:00,31.9,30.4,30.24,WSW,257,0.0,0.0,94,0.00,,OVC080,0.00,VWS V14.01,2013-03-15 11:30:00,
2013-03-15 07:35:00,31.7,30.2,30.24,WSW,257,0.0,0.0,94,0.00,,OVC080,0.00,VWS V14.01,2013-03-15 11:35:00,
2013-03-15 07:40:00,31.6,30.1,30.24,WSW,257,0.0,0.0,94,0.00,,OVC080,0.00,VWS V14.01,2013-03-15 11:40:00,
2013-03-15 07:45:00,31.6,30.1,30.24,WSW,257,0.0,0.0,94,0.00,,OVC080,0.00,VWS V14.01,2013-03-15 11:45:00,
2013-03-15 07:50:00,31.4,29.9,30.24,WSW,257,0.0,0.0,94,0.00,,OVC080,0.00,VWS V14.01,2013-03-15 11:50:00,
2013-03-15 07:55:00,31.5,30.2,30.24,WSW,257,0.0,0.0,95,0.00,,OVC080,0.00,VWS V14.01,2013-03-15 11:55:00,
2013-03-15 08:00:00,31.6,30.3,30.24,WSW,257,0.0,0.0,95,0.00,,OVC080,0.00,VWS V14.01,2013-03-15 12:00:00,
2013-03-15 08:05:00,31.4,30.1,30.24,WSW,257,0.0,0.0,95,0.00,,SKC,0.00,VWS V14.01,2013-03-15 12:05:00,
2013-03-15 08:10:00,31.4,30.1,30.24,WSW,257,0.0,0.0,95,0.00,,SKC,0.00,VWS V14.01,2013-03-15 12:10:00,
2013-03-15 08:15:00,31.6,30.3,30.24,WSW,257,0.0,0.0,95,0.00,,SKC,0.00,VWS V14.01,2013-03-15 12:15:00,
2013-03-15 08:20:00,31.7,30.4,30.24,WSW,257,0.0,0.0,95,0.00,,SKC,0.00,VWS V14.01,2013-03-15 12:20:00,
2013-03-15 08:25:00,31.8,30.5,30.24,WSW,257,0.0,0.0,95,0.00,,SKC,0.00,VWS V14.01,2013-03-15 12:25:00,
2013-03-15 08:30:00,32.2,30.9,30.24,WSW,257,0.0,0.0,95,0.00,,SKC,0.00,VWS V14.01,2013-03-15 12:30:00,
2013-03-15 08:35:00,32.9,31.6,30.25,WSW,257,0.0,0.0,95,0.00,,SKC,0.00,VWS V14.01,2013-03-15 12:35:00,
2013-03-15 08:40:00,33.9,32.6,30.25,WSW,257,0.0,0.0,95,0.00,,SKC,0.00,VWS V14.01,2013-03-15 12:40:00,
2013-03-15 08:45:00,34.9,33.6,30.24,WSW,257,0.0,0.0,95,0.00,,SKC,0.00,VWS V14.01,2013-03-15 12:45:00,
2013-03-15 08:50:00,36.4,35.4,30.24,WSW,257,0.0,0.0,96,0.00,,SKC,0.00,VWS V14.01,2013-03-15 12:50:00,
2013-03-15 08:55:00,37.6,36.0,30.24,WSW,257,0.0,0.0,94,0.00,,SKC,0.00,VWS V14.01,2013-03-15 12:55:00,
2013-03-15 09:00:00,37.7,35.0,30.24,WSW,257,0.0,0.0,90,0.00,,SKC,0.00,VWS V14.01,2013-03-15 13:00:00,
2013-03-15 09:05:00,38.0,34.8,30.24,WSW,256,0.0,0.0,88,0.00,,SKC,0.00,VWS V14.01,2013-03-15 13:05:00,
2013-03-15 09:10:00,38.3,34.5,30.24,SSW,212,1.0,1.0,86,0.00,,SKC,0.00,VWS V14.01,2013-03-15 13:10:00,
2013-03-15 09:15:00,38.9,34.5,30.24,SW,218,1.0,2.0,84,0.00,,SKC,0.00,VWS V14.01,2013-03-15 13:15:00,
2013-03-15 09:20:00,39.4,34.7,30.24,SW,229,2.0,3.0,83,0.00,,SKC,0.00,VWS V14.01,2013-03-15 13:20:00,
2013-03-15 09:25:00,39.9,34.9,30.24,SW,214,1.0,3.0,82,0.00,,SKC,0.00,VWS V14.01,2013-03-15 13:25:00,
2013-03-15 09:30:00,40.5,35.1,30.24,SW,218,0.0,2.0,81,0.00,,SKC,0.00,VWS V14.01,2013-03-15 13:30:00,
2013-03-15 09:35:00,41.2,35.5,30.23,WSW,246,1.0,2.0,80,0.00,,SKC,0.00,VWS V14.01,2013-03-15 13:35:00,
2013-03-15 09:40:00,41.7,35.7,30.23,SW,224,1.0,2.0,79,0.00,,SKC,0.00,VWS V14.01,2013-03-15 13:40:00,
2013-03-15 09:45:00,42.5,34.8,30.23,SW,221,3.0,4.0,74,0.00,,SKC,0.00,VWS V14.01,2013-03-15 13:45:00,
2013-03-15 09:50:00,43.2,33.7,30.23,SW,214,2.0,5.0,69,0.00,,SKC,0.00,VWS V14.01,2013-03-15 13:50:00,
2013-03-15 09:55:00,43.7,33.5,30.23,SSW,203,0.0,5.0,67,0.00,,SKC,0.00,VWS V14.01,2013-03-15 13:55:00,
2013-03-15 10:00:00,44.5,33.9,30.23,South,169,1.0,3.0,66,0.00,,SKC,0.00,VWS V14.01,2013-03-15 14:00:00,
2013-03-15 10:05:00,45.1,33.3,30.23,WSW,246,2.0,4.0,63,0.00,,SKC,0.00,VWS V14.01,2013-03-15 14:05:00,
2013-03-15 10:10:00,45.6,33.8,30.23,SSW,198,4.0,5.0,63,0.00,,SKC,0.00,VWS V14.01,2013-03-15 14:10:00,
2013-03-15 10:15:00,46.3,33.2,30.22,SSW,204,3.0,5.0,60,0.00,,SKC,0.00,VWS V14.01,2013-03-15 14:15:00,
2013-03-15 10:20:00,47.0,33.4,30.22,SSW,193,1.0,4.0,59,0.00,,SKC,0.00,VWS V14.01,2013-03-15 14:20:00,
2013-03-15 10:25:00,47.9,33.4,30.22,WSW,256,2.0,2.0,57,0.00,,SKC,0.00,VWS V14.01,2013-03-15 14:25:00,
2013-03-15 10:30:00,48.5,33.1,30.22,SW,229,2.0,6.0,55,0.00,,SKC,0.00,VWS V14.01,2013-03-15 14:30:00,
2013-03-15 10:35:00,49.1,33.2,30.22,SSE,150,1.0,4.0,54,0.00,,SKC,0.00,VWS V14.01,2013-03-15 14:35:00,
2013-03-15 10:40:00,49.9,34.4,30.22,West,270,3.0,4.0,55,0.00,,SKC,0.00,VWS V14.01,2013-03-15 14:40:00,
2013-03-15 10:45:00,50.6,33.2,30.22,WSW,240,4.0,4.0,51,0.00,,SKC,0.00,VWS V14.01,2013-03-15 14:45:00,
2013-03-15 10:50:00,51.5,34.0,30.22,West,262,4.0,4.0,51,0.00,,SKC,0.00,VWS V14.01,2013-03-15 14:50:00,
2013-03-15 10:55:00,52.2,33.6,30.21,West,267,0.0,5.0,49,0.00,,SKC,0.00,VWS V14.01,2013-03-15 14:55:00,
2013-03-15 11:00:00,53.3,33.1,30.21,SSW,210,2.0,4.0,46,0.00,,SKC,0.00,VWS V14.01,2013-03-15 15:00:00,
2013-03-15 11:05:00,54.1,33.2,30.21,SSW,209,2.0,5.0,45,0.00,,SKC,0.00,VWS V14.01,2013-03-15 15:05:00,
2013-03-15 11:10:00,55.1,34.2,30.20,SSW,210,3.0,4.0,45,0.00,,SKC,0.00,VWS V14.01,2013-03-15 15:10:00,
2013-03-15 11:15:00,56.0,33.8,30.20,SSW,200,3.0,6.0,43,0.00,,SKC,0.00,VWS V14.01,2013-03-15 15:15:00,
2013-03-15 11:20:00,56.5,34.3,30.20,SW,224,5.0,7.0,43,0.00,,SKC,0.00,VWS V14.01,2013-03-15 15:20:00,
2013-03-15 11:25:00,57.2,33.7,30.20,SW,222,3.0,7.0,41,0.00,,SKC,0.00,VWS V14.01,2013-03-15 15:25:00,
2013-03-15 11:30:00,57.5,33.4,30.19,SW,226,4.0,10.0,40,0.00,,SKC,0.00,VWS V14.01,2013-03-15 15:30:00,
2013-03-15 11:35:00,57.9,33.1,30.19,South,186,2.0,6.0,39,0.00,,SKC,0.00,VWS V14.01,2013-03-15 15:35:00,
2013-03-15 11:40:00,58.4,34.2,30.19,WSW,245,5.0,7.0,40,0.00,,SKC,0.00,VWS V14.01,2013-03-15 15:40:00,
2013-03-15 11:45:00,58.6,33.7,30.19,South,191,5.0,9.0,39,0.00,,SKC,0.00,VWS V14.01,2013-03-15 15:45:00,
2013-03-15 11:50:00,58.8,33.9,30.19,WSW,242,5.0,8.0,39,0.00,,SKC,0.00,VWS V14.01,2013-03-15 15:50:00,
2013-03-15 11:55:00,58.9,34.0,30.19,SW,226,5.0,9.0,39,0.00,,SKC,0.00,VWS V14.01,2013-03-15 15:55:00,
2013-03-15 12:01:00,59.1,34.2,30.18,West,265,2.0,7.0,39,0.00,,SKC,0.00,VWS V14.01,2013-03-15 16:01:00,
2013-03-15 12:06:00,60.0,35.0,30.18,SSW,204,5.0,6.0,39,0.00,,SKC,0.00,VWS V14.01,2013-03-15 16:06:00,
2013-03-15 12:11:00,60.6,34.9,30.17,SW,217,4.0,9.0,38,0.00,,SKC,0.00,VWS V14.01,2013-03-15 16:11:00,
2013-03-15 12:15:00,61.6,36.4,30.17,WSW,257,3.0,8.0,39,0.00,,SKC,0.00,VWS V14.01,2013-03-15 16:15:00,
2013-03-15 12:21:00,62.2,36.3,30.17,WSW,246,2.0,9.0,38,0.00,,SKC,0.00,VWS V14.01,2013-03-15 16:21:00,
2013-03-15 12:26:00,63.0,36.3,30.17,SW,214,3.0,9.0,37,0.00,,SKC,0.00,VWS V14.01,2013-03-15 16:26:00,
2013-03-15 12:31:00,62.8,36.8,30.17,SW,229,5.0,8.0,38,0.00,,SKC,0.00,VWS V14.01,2013-03-15 16:31:00,
2013-03-15 12:36:00,63.0,36.3,30.17,SW,219,5.0,7.0,37,0.00,,SKC,0.00,VWS V14.01,2013-03-15 16:36:00,
2013-03-15 12:41:00,63.8,35.7,30.16,South,187,1.0,7.0,35,0.00,,SKC,0.00,VWS V14.01,2013-03-15 16:41:00,
2013-03-15 12:46:00,63.9,36.5,30.16,SSW,194,2.0,10.0,36,0.00,,SKC,0.00,VWS V14.01,2013-03-15 16:46:00,
2013-03-15 12:51:00,64.8,37.9,30.15,SSW,211,3.0,6.0,37,0.00,,SKC,0.00,VWS V14.01,2013-03-15 16:51:00,
2013-03-15 12:56:00,65.4,36.3,30.16,SSW,200,5.0,7.0,34,0.00,,SKC,0.00,VWS V14.01,2013-03-15 16:56:00,
2013-03-15 13:01:00,65.4,37.1,30.15,SSE,159,4.0,9.0,35,0.00,,SKC,0.00,VWS V14.01,2013-03-15 17:01:00,
2013-03-15 13:06:00,66.4,39.4,30.15,SSW,210,3.0,6.0,37,0.00,,SKC,0.00,VWS V14.01,2013-03-15 17:06:00,
2013-03-15 13:11:00,67.0,38.5,30.14,SW,215,6.0,8.0,35,0.00,,SKC,0.00,VWS V14.01,2013-03-15 17:11:00,
2013-03-15 13:16:00,67.2,38.7,30.14,SW,232,2.0,10.0,35,0.00,,SKC,0.00,VWS V14.01,2013-03-15 17:16:00,
2013-03-15 13:21:00,67.9,38.5,30.13,SW,214,7.0,16.0,34,0.00,,SKC,0.00,VWS V14.01,2013-03-15 17:21:00,
2013-03-15 13:26:00,68.1,39.4,30.13,West,263,1.0,8.0,35,0.00,,SKC,0.00,VWS V14.01,2013-03-15 17:26:00,
2013-03-15 13:31:00,69.0,40.2,30.13,South,181,1.0,4.0,35,0.00,,SKC,0.00,VWS V14.01,2013-03-15 17:31:00,
2013-03-15 13:36:00,69.6,40.8,30.13,SSW,195,9.0,9.0,35,0.00,,SKC,0.00,VWS V14.01,2013-03-15 17:36:00,
2013-03-15 13:41:00,70.3,40.6,30.12,West,267,4.0,7.0,34,0.00,,SKC,0.00,VWS V14.01,2013-03-15 17:41:00,
2013-03-15 13:46:00,71.1,40.6,30.12,SW,221,5.0,7.0,33,0.00,,SKC,0.00,VWS V14.01,2013-03-15 17:46:00,
2013-03-15 13:51:00,70.9,40.4,30.12,WSW,257,3.0,9.0,33,0.00,,SKC,0.00,VWS V14.01,2013-03-15 17:51:00,
2013-03-15 13:56:00,70.7,41.0,30.12,SW,222,3.0,12.0,34,0.00,,SKC,0.00,VWS V14.01,2013-03-15 17:56:00,
2013-03-15 14:02:00,70.7,40.2,30.11,WSW,243,5.0,9.0,33,0.00,,SKC,0.00,VWS V14.01,2013-03-15 18:02:00,
2013-03-15 14:07:00,70.7,41.0,30.11,WSW,245,6.0,7.0,34,0.00,,SKC,0.00,VWS V14.01,2013-03-15 18:07:00,
2013-03-15 14:12:00,70.5,40.8,30.11,NNE,25,2.0,2.0,34,0.00,,SKC,0.00,VWS V14.01,2013-03-15 18:12:00,
2013-03-15 14:17:00,70.7,41.0,30.10,SW,214,5.0,5.0,34,0.00,,SKC,0.00,VWS V14.01,2013-03-15 18:17:00,
2013-03-15 14:22:00,70.6,40.1,30.10,South,188,6.0,8.0,33,0.00,,SKC,0.00,VWS V14.01,2013-03-15 18:22:00,
2013-03-15 14:27:00,70.8,41.1,30.10,SW,219,6.0,7.0,34,0.00,,SKC,0.00,VWS V14.01,2013-03-15 18:27:00,
2013-03-15 14:32:00,71.0,41.2,30.10,SW,235,14.0,14.0,34,0.00,,SKC,0.00,VWS V14.01,2013-03-15 18:32:00,
2013-03-15 14:37:00,71.1,41.3,30.09,West,270,7.0,7.0,34,0.00,,SKC,0.00,VWS V14.01,2013-03-15 18:37:00,
2013-03-15 14:42:00,72.0,41.3,30.09,SW,230,5.0,6.0,33,0.00,,SKC,0.00,VWS V14.01,2013-03-15 18:42:00,
2013-03-15 14:47:00,72.1,40.7,30.09,SSW,208,10.0,11.0,32,0.00,,SKC,0.00,VWS V14.01,2013-03-15 18:47:00,
2013-03-15 14:52:00,71.7,41.1,30.08,WSW,255,7.0,8.0,33,0.00,,SKC,0.00,VWS V14.01,2013-03-15 18:52:00,
2013-03-15 14:57:00,72.2,41.5,30.08,SW,236,4.0,4.0,33,0.00,,SKC,0.00,VWS V14.01,2013-03-15 18:57:00,
2013-03-15 15:02:00,72.4,40.1,30.08,SW,219,7.0,8.0,31,0.00,,SKC,0.00,VWS V14.01,2013-03-15 19:02:00,
2013-03-15 15:07:00,72.4,40.9,30.07,West,259,3.0,4.0,32,0.00,,SKC,0.00,VWS V14.01,2013-03-15 19:07:00,
2013-03-15 15:12:00,72.9,41.3,30.07,West,262,4.0,5.0,32,0.00,,SKC,0.00,VWS V14.01,2013-03-15 19:12:00,
2013-03-15 15:17:00,72.9,41.3,30.06,WSW,243,3.0,4.0,32,0.00,,SKC,0.00,VWS V14.01,2013-03-15 19:17:00,
2013-03-15 15:22:00,73.0,40.6,30.06,SW,215,3.0,5.0,31,0.00,,SKC,0.00,VWS V14.01,2013-03-15 19:22:00,
2013-03-15 15:27:00,73.2,41.6,30.06,SW,218,8.0,8.0,32,0.00,,SKC,0.00,VWS V14.01,2013-03-15 19:27:00,
2013-03-15 15:32:00,73.4,42.6,30.06,WSW,240,3.0,3.0,33,0.00,,SKC,0.00,VWS V14.01,2013-03-15 19:32:00,
2013-03-15 15:37:00,73.9,41.4,30.05,WNW,287,3.0,11.0,31,0.00,,SKC,0.00,VWS V14.01,2013-03-15 19:37:00,
2013-03-15 15:42:00,73.9,41.4,30.05,NNE,25,2.0,4.0,31,0.00,,SKC,0.00,VWS V14.01,2013-03-15 19:42:00,
2013-03-15 15:47:00,73.9,41.4,30.04,SSW,201,4.0,9.0,31,0.00,,SKC,0.00,VWS V14.01,2013-03-15 19:47:00,
2013-03-15 15:52:00,73.7,42.0,30.04,WSW,248,7.0,8.0,32,0.00,,SKC,0.00,VWS V14.01,2013-03-15 19:52:00,
2013-03-15 15:57:00,73.7,42.8,30.04,WSW,243,5.0,5.0,33,0.00,,SKC,0.00,VWS V14.01,2013-03-15 19:57:00,
2013-03-15 16:02:00,74.0,41.5,30.04,SW,222,5.0,5.0,31,0.00,,SKC,0.00,VWS V14.01,2013-03-15 20:02:00,
2013-03-15 16:07:00,74.3,42.6,30.03,SW,225,3.0,4.0,32,0.00,,SKC,0.00,VWS V14.01,2013-03-15 20:07:00,
2013-03-15 16:12:00,74.4,42.7,30.03,West,279,3.0,7.0,32,0.00,,SKC,0.00,VWS V14.01,2013-03-15 20:12:00,
2013-03-15 16:17:00,74.0,42.3,30.03,SSW,208,10.0,11.0,32,0.00,,SKC,0.00,VWS V14.01,2013-03-15 20:17:00,
2013-03-15 16:22:00,74.0,41.5,30.03,SW,231,4.0,5.0,31,0.00,,SKC,0.00,VWS V14.01,2013-03-15 20:22:00,
2013-03-15 16:27:00,74.4,41.8,30.02,WSW,245,6.0,7.0,31,0.00,,SKC,0.00,VWS V14.01,2013-03-15 20:27:00,
2013-03-15 16:32:00,74.2,41.7,30.02,SW,225,4.0,6.0,31,0.00,,SKC,0.00,VWS V14.01,2013-03-15 20:32:00,
2013-03-15 16:37:00,74.6,41.2,30.02,West,260,6.0,9.0,30,0.00,,SKC,0.00,VWS V14.01,2013-03-15 20:37:00,
2013-03-15 16:42:00,74.2,40.8,30.01,West,263,7.0,10.0,30,0.00,,SKC,0.00,VWS V14.01,2013-03-15 20:42:00,
2013-03-15 16:47:00,73.9,41.4,30.02,WSW,241,7.0,16.0,31,0.00,,SKC,0.00,VWS V14.01,2013-03-15 20:47:00,
2013-03-15 16:52:00,74.0,42.3,30.01,SW,229,3.0,3.0,32,0.00,,SKC,0.00,VWS V14.01,2013-03-15 20:52:00,
2013-03-15 16:57:00,74.2,41.7,30.01,SSW,209,3.0,6.0,31,0.00,,SKC,0.00,VWS V14.01,2013-03-15 20:57:00,
2013-03-15 17:02:00,74.4,41.8,30.01,WSW,255,7.0,10.0,31,0.00,,FEW150,0.00,VWS V14.01,2013-03-15 21:02:00,
2013-03-15 17:07:00,74.6,42.0,30.01,West,267,6.0,6.0,31,0.00,,FEW150,0.00,VWS V14.01,2013-03-15 21:07:00,
2013-03-15 17:12:00,74.4,41.8,30.00,WSW,242,5.0,11.0,31,0.00,,FEW150,0.00,VWS V14.01,2013-03-15 21:12:00,
2013-03-15 17:17:00,74.1,42.4,30.00,WNW,286,2.0,7.0,32,0.00,,FEW150,0.00,VWS V14.01,2013-03-15 21:17:00,
2013-03-15 17:22:00,74.6,42.0,30.01,SW,233,5.0,8.0,31,0.00,,FEW150,0.00,VWS V14.01,2013-03-15 21:22:00,
2013-03-15 17:27:00,74.5,41.9,30.00,SW,222,6.0,9.0,31,0.00,,FEW150,0.00,VWS V14.01,2013-03-15 21:27:00,
2013-03-15 17:32:00,74.4,41.8,30.00,SW,226,4.0,7.0,31,0.00,,FEW150,0.00,VWS V14.01,2013-03-15 21:32:00,
2013-03-15 17:37:00,74.4,41.8,30.00,SW,219,4.0,4.0,31,0.00,,FEW150,0.00,VWS V14.01,2013-03-15 21:37:00,
2013-03-15 17:42:00,74.8,43.0,30.00,WSW,243,3.0,4.0,32,0.00,,FEW150,0.00,VWS V14.01,2013-03-15 21:42:00,
2013-03-15 17:47:00,74.5,41.9,30.00,SW,236,8.0,8.0,31,0.00,,FEW150,0.00,VWS V14.01,2013-03-15 21:47:00,
2013-03-15 17:52:00,74.2,42.5,30.00,West,267,6.0,10.0,32,0.00,,FEW150,0.00,VWS V14.01,2013-03-15 21:52:00,
2013-03-15 17:57:00,74.1,42.4,30.00,SW,225,4.0,6.0,32,0.00,,FEW150,0.00,VWS V14.01,2013-03-15 21:57:00,
2013-03-15 18:02:00,74.0,42.3,30.00,SW,225,7.0,8.0,32,0.00,,SKC,0.00,VWS V14.01,2013-03-15 22:02:00,
2013-03-15 18:07:00,73.9,41.4,30.00,SW,214,7.0,11.0,31,0.00,,SKC,0.00,VWS V14.01,2013-03-15 22:07:00,
2013-03-15 18:12:00,73.6,41.1,30.00,WSW,243,8.0,12.0,31,0.00,,SKC,0.00,VWS V14.01,2013-03-15 22:12:00,
2013-03-15 18:17:00,73.3,41.7,29.99,West,262,6.0,8.0,32,0.00,,SKC,0.00,VWS V14.01,2013-03-15 22:17:00,
2013-03-15 18:22:00,73.5,41.9,29.99,WSW,239,3.0,6.0,32,0.00,,SKC,0.00,VWS V14.01,2013-03-15 22:22:00,
2013-03-15 18:27:00,73.7,42.0,29.99,North,360,4.0,4.0,32,0.00,,SKC,0.00,VWS V14.01,2013-03-15 22:27:00,
2013-03-15 18:32:00,73.3,41.7,30.00,WSW,249,2.0,4.0,32,0.00,,SKC,0.00,VWS V14.01,2013-03-15 22:32:00,
2013-03-15 18:37:00,73.0,42.2,29.99,SW,229,2.0,4.0,33,0.00,,SKC,0.00,VWS V14.01,2013-03-15 22:37:00,
2013-03-15 18:42:00,72.8,42.0,30.00,WSW,256,3.0,6.0,33,0.00,,SKC,0.00,VWS V14.01,2013-03-15 22:42:00,
2013-03-15 18:47:00,72.3,41.6,30.00,SW,236,5.0,7.0,33,0.00,,SKC,0.00,VWS V14.01,2013-03-15 22:47:00,
2013-03-15 18:52:00,71.9,42.0,30.00,SW,236,4.0,6.0,34,0.00,,SKC,0.00,VWS V14.01,2013-03-15 22:52:00,
2013-03-15 18:57:00,71.6,42.5,30.00,NW,309,2.0,3.0,35,0.00,,SKC,0.00,VWS V14.01,2013-03-15 22:57:00,
2013-03-15 19:02:00,71.4,42.3,30.00,SW,233,6.0,6.0,35,0.00,,SKC,0.00,VWS V14.01,2013-03-15 23:02:00,
2013-03-15 19:07:00,71.3,42.3,30.00,WSW,252,6.0,11.0,35,0.00,,SKC,0.00,VWS V14.01,2013-03-15 23:07:00,
2013-03-15 19:12:00,71.2,42.2,30.00,SSW,200,3.0,5.0,35,0.00,,SKC,0.00,VWS V14.01,2013-03-15 23:12:00,
2013-03-15 19:17:00,71.0,42.7,30.00,South,188,1.0,4.0,36,0.00,,SKC,0.00,VWS V14.01,2013-03-15 23:17:00,
2013-03-15 19:22:00,70.7,42.5,30.00,SW,225,4.0,6.0,36,0.00,,SKC,0.00,VWS V14.01,2013-03-15 23:22:00,
2013-03-15 19:27:00,70.5,42.3,30.00,WSW,248,4.0,7.0,36,0.00,,SKC,0.00,VWS V14.01,2013-03-15 23:27:00,
2013-03-15 19:32:00,70.4,42.2,30.00,WSW,243,3.0,5.0,36,0.00,,SKC,0.00,VWS V14.01,2013-03-15 23:32:00,
2013-03-15 19:37:00,70.1,42.7,30.00,WSW,252,2.0,3.0,37,0.00,,SKC,0.00,VWS V14.01,2013-03-15 23:37:00,
2013-03-15 19:43:00,69.9,42.5,30.00,SSW,201,2.0,3.0,37,0.00,,SKC,0.00,VWS V14.01,2013-03-15 23:43:00,
2013-03-15 19:48:00,69.7,42.3,30.00,SW,235,4.0,6.0,37,0.00,,SKC,0.00,VWS V14.01,2013-03-15 23:48:00,
2013-03-15 19:53:00,69.4,42.7,30.00,SW,228,1.0,2.0,38,0.00,,SKC,0.00,VWS V14.01,2013-03-15 23:53:00,
2013-03-15 19:58:00,69.2,42.5,30.00,SW,236,3.0,3.0,38,0.00,,SKC,0.00,VWS V14.01,2013-03-15 23:58:00,
2013-03-15 20:03:00,69.0,42.4,30.00,SW,233,1.0,2.0,38,0.00,,SKC,0.00,VWS V14.01,2013-03-16 00:03:00,
2013-03-15 20:08:00,68.7,42.8,30.00,SW,230,2.0,2.0,39,0.00,,SKC,0.00,VWS V14.01,2013-03-16 00:08:00,
2013-03-15 20:13:00,68.4,42.5,30.00,SW,217,2.0,4.0,39,0.00,,SKC,0.00,VWS V14.01,2013-03-16 00:13:00,
2013-03-15 20:18:00,68.3,42.4,30.00,WSW,245,2.0,4.0,39,0.00,,SKC,0.00,VWS V14.01,2013-03-16 00:18:00,
2013-03-15 20:23:00,68.2,42.3,30.00,SW,234,2.0,4.0,39,0.00,,SKC,0.00,VWS V14.01,2013-03-16 00:23:00,
2013-03-15 20:28:00,68.0,42.1,30.00,WSW,246,2.0,2.0,39,0.00,,SKC,0.00,VWS V14.01,2013-03-16 00:28:00,
2013-03-15 20:33:00,67.9,42.7,30.00,WSW,239,3.0,3.0,40,0.00,,SKC,0.00,VWS V14.01,2013-03-16 00:33:00,
2013-03-15 20:38:00,67.7,42.5,30.00,SW,228,2.0,3.0,40,0.00,,SKC,0.00,VWS V14.01,2013-03-16 00:38:00,
2013-03-15 20:43:00,67.6,42.4,30.00,SW,219,2.0,4.0,40,0.00,,SKC,0.00,VWS V14.01,2013-03-16 00:43:00,
2013-03-15 20:48:00,67.6,42.4,30.00,SSW,204,2.0,2.0,40,0.00,,SKC,0.00,VWS V14.01,2013-03-16 00:48:00,
2013-03-15 20:53:00,67.4,42.3,30.00,SW,236,3.0,4.0,40,0.00,,SKC,0.00,VWS V14.01,2013-03-16 00:53:00,
2013-03-15 20:57:00,67.4,42.9,30.00,SW,228,1.0,3.0,41,0.00,,SKC,0.00,VWS V14.01,2013-03-16 00:57:00,
2013-03-15 21:02:00,67.1,42.6,30.00,WSW,245,2.0,4.0,41,0.00,,SKC,0.00,VWS V14.01,2013-03-16 01:02:00,
2013-03-15 21:08:00,66.9,43.1,30.00,SW,217,5.0,5.0,42,0.00,,SKC,0.00,VWS V14.01,2013-03-16 01:08:00,
2013-03-15 21:13:00,66.8,43.0,30.00,SW,221,3.0,4.0,42,0.00,,SKC,0.00,VWS V14.01,2013-03-16 01:13:00,
2013-03-15 21:18:00,66.7,42.9,30.00,SW,226,3.0,3.0,42,0.00,,SKC,0.00,VWS V14.01,2013-03-16 01:18:00,
2013-03-15 21:23:00,66.8,43.0,30.00,SW,229,1.0,3.0,42,0.00,,SKC,0.00,VWS V14.01,2013-03-16 01:23:00,
2013-03-15 21:28:00,66.6,42.8,30.00,South,190,4.0,5.0,42,0.00,,SKC,0.00,VWS V14.01,2013-03-16 01:28:00,
2013-03-15 21:33:00,66.5,43.3,30.00,SW,218,1.0,2.0,43,0.00,,SKC,0.00,VWS V14.01,2013-03-16 01:33:00,
2013-03-15 21:38:00,66.4,43.2,30.00,SSW,206,1.0,4.0,43,0.00,,SKC,0.00,VWS V14.01,2013-03-16 01:38:00,
2013-03-15 21:43:00,66.2,43.1,30.00,SW,221,3.0,3.0,43,0.00,,SKC,0.00,VWS V14.01,2013-03-16 01:43:00,
2013-03-15 21:48:00,66.0,43.5,30.01,WSW,239,2.0,4.0,44,0.00,,SKC,0.00,VWS V14.01,2013-03-16 01:48:00,
2013-03-15 21:53:00,65.9,43.4,30.01,SW,214,3.0,4.0,44,0.00,,SKC,0.00,VWS V14.01,2013-03-16 01:53:00,
2013-03-15 21:58:00,65.9,43.4,30.01,SSW,207,3.0,5.0,44,0.00,,SKC,0.00,VWS V14.01,2013-03-16 01:58:00,
2013-03-15 22:03:00,65.8,43.3,30.01,SW,215,3.0,5.0,44,0.00,,SKC,0.00,VWS V14.01,2013-03-16 02:03:00,
2013-03-15 22:08:00,65.6,43.7,30.01,WSW,240,2.0,4.0,45,0.00,,SKC,0.00,VWS V14.01,2013-03-16 02:08:00,
2013-03-15 22:13:00,65.4,43.5,30.01,SW,231,5.0,8.0,45,0.00,,SKC,0.00,VWS V14.01,2013-03-16 02:13:00,
2013-03-15 22:18:00,65.4,43.5,30.01,SW,235,3.0,4.0,45,0.00,,SKC,0.00,VWS V14.01,2013-03-16 02:18:00,
2013-03-15 22:23:00,65.3,43.4,30.01,SW,214,4.0,4.0,45,0.00,,SKC,0.00,VWS V14.01,2013-03-16 02:23:00,
2013-03-15 22:28:00,65.3,43.4,30.01,SSW,207,5.0,6.0,45,0.00,,SKC,0.00,VWS V14.01,2013-03-16 02:28:00,
2013-03-15 22:33:00,65.2,43.3,30.01,SW,226,4.0,11.0,45,0.00,,SKC,0.00,VWS V14.01,2013-03-16 02:33:00,
2013-03-15 22:38:00,65.0,43.7,30.01,SW,214,2.0,5.0,46,0.00,,SKC,0.00,VWS V14.01,2013-03-16 02:38:00,
2013-03-15 22:43:00,65.0,43.7,30.01,WSW,240,4.0,5.0,46,0.00,,SKC,0.00,VWS V14.01,2013-03-16 02:43:00,
2013-03-15 22:48:00,64.8,43.6,30.01,SW,218,5.0,6.0,46,0.00,,SKC,0.00,VWS V14.01,2013-03-16 02:48:00,
2013-03-15 22:53:00,64.9,43.7,30.01,WSW,239,2.0,3.0,46,0.00,,SKC,0.00,VWS V14.01,2013-03-16 02:53:00,
2013-03-15 22:58:00,64.8,43.6,30.01,WSW,246,3.0,10.0,46,0.00,,SKC,0.00,VWS V14.01,2013-03-16 02:58:00,
2013-03-15 23:03:00,64.7,43.5,30.01,WSW,240,5.0,5.0,46,0.00,,SKC,0.00,VWS V14.01,2013-03-16 03:03:00,
2013-03-15 23:08:00,64.6,43.4,30.01,West,280,4.0,4.0,46,0.00,,SKC,0.00,VWS V14.01,2013-03-16 03:08:00,
2013-03-15 23:13:00,64.5,43.3,30.01,SSW,201,1.0,4.0,46,0.00,,SKC,0.00,VWS V14.01,2013-03-16 03:13:00,
2013-03-15 23:18:00,64.2,43.6,30.01,SW,226,4.0,5.0,47,0.00,,SKC,0.00,VWS V14.01,2013-03-16 03:18:00,
2013-03-15 23:23:00,64.1,43.5,30.01,SW,219,3.0,3.0,47,0.00,,SKC,0.00,VWS V14.01,2013-03-16 03:23:00,
2013-03-15 23:28:00,63.9,43.3,30.01,SW,231,1.0,2.0,47,0.00,,SKC,0.00,VWS V14.01,2013-03-16 03:28:00,
2013-03-15 23:33:00,63.8,43.2,30.00,SSW,212,1.0,3.0,47,0.00,,SKC,0.00,VWS V14.01,2013-03-16 03:33:00,
2013-03-15 23:38:00,63.7,43.1,30.00,SW,235,3.0,4.0,47,0.00,,SKC,0.00,VWS V14.01,2013-03-16 03:38:00,
2013-03-15 23:43:00,63.7,43.7,30.00,SW,226,3.0,7.0,48,0.00,,SKC,0.00,VWS V14.01,2013-03-16 03:43:00,
2013-03-15 23:48:00,63.5,43.5,30.00,SW,219,4.0,4.0,48,0.00,,SKC,0.00,VWS V14.01,2013-03-16 03:48:00,
2013-03-15 23:53:00,63.3,43.3,30.00,SW,215,1.0,2.0,48,0.00,,SKC,0.00,VWS V14.01,2013-03-16 03:53:00,
2013-03-15 23:58:00,62.9,43.5,30.00,SSW,205,1.0,2.0,49,0.00,,SKC,0.00,VWS V14.01,2013-03-16 03:58:00,